Вернуться в каталог

FENGYUN 1C DEB

АктивенPO
NORAD 30521·DEBRIS·🇨🇳 China

Запущен May 10, 1999 с Taiyuan Satellite Launch Center

Loading…

Ближайшие Пролёты (ближайшие 24 часа)

TLE

СвежийSource: Space-Track

Эпоха: Sep 14, 2026, 10:01 UTC

1 30521U 99025AJK 26257.41798203  .00002049  00000-0  38936-3 0  9999
2 30521  99.0237  60.9517 0133655 124.5052 236.8851 14.59848689 36007

Отслеживайте FENGYUN 1C DEB в реальном времени с AllMySat

Download on the App Store